Regional Weather Roundup
Issued by NWS Goodland, KS

Home | Current Version | Previous Version | Graphics & Text | Print | Product List | Glossary On
Versions: 1 2 3 4 5 6 7 8 9 10 11 12 13 14 15 16 17 18 19 20 21 22 23 24 25 26 27 28 29 30 31 32 33 34 35 36 37 38 39 40 41 42 43 44 45 46 47 48 49 50
000
ASUS43 KGLD 272008
RWRGLD

GOODLAND FORECAST AREA HOURLY WEATHER ROUNDUP
NATIONAL WEATHER SERVICE GOODLAND KS
200 PM MDT SAT AUG 27 2016

...OFFICIAL OBSERVATIONS...

CITY           SKY/WX    TMP DP  RH WIND       PRES   REMARKS
GOODLAND KS    SUNNY     82  58  43 SE10      30.04F
HILL CITY KS   SUNNY     83  65  54 S13G20    30.02F
IMPERIAL NEB   SUNNY     79  61  53 S9        30.03F
MCCOOK NEB     SUNNY     83  63  50 S14       30.01F
AKRON CO       PTSUNNY   81  50  33 MISG      30.07F
BURLINGTON CO  SUNNY     81  51  35 E14       30.06F
LIMON CO       CLOUDY    78  47  33 SE10      30.11F
$$

...UNOFFICIAL OBSERVATIONS...

CITY           SKY/WX    TMP DP  RH WIND       PRES   REMARKS
LENORA KS        N/A     81  32  17 MISG        N/A
NORTON KS      MOSUNNY   81  59  47 SE10G17   30.02F
SHARON SPRINGS   N/A     86  62  44 SE13G20     N/A
TRENTON NEB      N/A     84  32  15 MISG        N/A
KIT CARSON CO    N/A     82  55  38 MISG        N/A
YUMA CO          N/A     81  57  43 SE6         N/A
$$



USA.gov is the U.S. government's official web portal to all federal, state and local government web resources and services.